HA9HP Weather Reports


time (UTC)temp
F
wind
direction
speed
knots
gust
knots
rain 1hr
in
rain 24hr
in
rain mn
in
humidity
%
barometer
mb
20260503214529 42 302 0.0 1.7 0.00 0.00 0.00 82 1018.7
20260503213029 43 302 0.0 1.7 0.00 0.00 0.00 82 1018.8
20260503211528 43 302 0.0 1.7 0.00 0.00 0.00 82 1018.7
20260503210022 43 302 0.0 1.7 0.00 0.00 0.00 81 1018.7
20260503204526 44 302 0.0 1.7 0.00 0.00 0.00 80 1018.7
20260503203031 44 300 0.0 0.9 0.00 0.00 0.00 79 1018.7
20260503201530 45 300 0.0 1.7 0.00 0.00 0.00 78 1018.6
20260503200028 46 300 0.0 1.7 0.00 0.00 0.00 78 1018.7
20260503194524 47 300 0.0 1.7 0.00 0.00 0.00 77 1018.7
20260503193034 48 300 0.0 1.7 0.00 0.00 0.00 75 1018.8
20260503191528 49 300 0.9 1.7 0.00 0.00 0.00 72 1018.8
20260503190031 50 300 0.0 1.7 0.00 0.00 0.00 71 1018.7
20260503184530 51 306 0.0 1.7 0.00 0.00 0.00 67 1018.6
20260503183036 52 310 0.0 0.0 0.00 0.00 0.00 65 1018.5
20260503181527 54 194 0.0 0.0 0.00 0.00 0.00 59 1018.4
20260503180030 57 194 0.0 0.0 0.00 0.00 0.00 55 1018.3
20260503174528 61 192 0.0 0.0 0.00 0.00 0.00 49 1018.2
20260503173017 67 192 0.0 0.0 0.00 0.00 0.00 43 1018.1
20260503171508 70 192 0.0 0.0 0.00 0.00 0.00 36 1018.2
20260503081515 65 173 1.7 5.2 0.00 0.00 0.00 39 1022.7
20260503071527 62 302 0.9 6.1 0.00 0.00 0.00 43 1022.8
20260503054519 52 333 0.9 5.2 0.00 0.00 0.00 61 1022.5
20260503053004 50 5 0.0 2.6 0.00 0.00 0.00 69 1022.5
20260503051508 46 329 0.0 1.7 0.00 0.00 0.00 77 1022.4
20260503050028 43 352 0.0 0.0 0.00 0.00 0.00 85 1022.4
20260503044517 40 9 0.0 0.0 0.00 0.00 0.00 87 1022.4
20260503043021 39 24 0.0 0.0 0.00 0.00 0.00 87 1022.3
20260503041509 37 352 0.0 0.9 0.00 0.00 0.00 88 1022.3
20260503040011 36 5 0.0 1.7 0.00 0.00 0.00 88 1022.1
20260503034527 36 328 0.9 0.9 0.00 0.00 0.00 87 1022.1
20260503033027 36 340 0.0 1.7 0.00 0.00 0.00 87 1022.0
20260503031527 36 341 0.9 1.7 0.00 0.00 0.00 87 1021.9
20260503030008 37 360 0.0 1.7 0.00 0.00 0.00 86 1022.0
20260503024511 37 328 0.0 0.0 0.00 0.00 0.00 86 1021.8
20260503023017 37 330 0.0 0.0 0.00 0.00 0.00 86 1021.7
20260503021520 37 322 0.0 0.0 0.00 0.00 0.00 85 1021.8
20260503020027 38 9 0.0 0.0 0.00 0.00 0.00 86 1021.8
20260503014509 38 331 0.0 0.0 0.00 0.00 0.00 85 1021.7
20260503013024 38 331 0.0 0.0 0.00 0.00 0.00 85 1021.8
20260503011522 38 331 0.0 0.0 0.00 0.00 0.00 85 1021.7
20260503010023 39 331 0.0 0.0 0.00 0.00 0.00 84 1021.7
20260503004532 39 331 0.0 0.0 0.00 0.00 0.00 83 1021.7
20260503003015 40 302 0.0 0.0 0.00 0.00 0.00 83 1021.6
20260503001516 40 327 0.0 0.0 0.00 0.00 0.00 82 1021.7
20260503000025 41 300 0.0 0.0 0.00 0.00 0.00 81 1021.7
20260502234524 41 334 0.0 1.7 0.00 0.00 0.00 81 1021.7
20260502233012 42 311 0.0 0.0 0.00 0.00 0.00 81 1021.7
20260502231512 43 311 0.0 0.0 0.00 0.00 0.00 79 1021.7
20260502230020 44 311 0.0 1.7 0.00 0.00 0.00 79 1021.7
20260502224523 44 311 0.0 1.7 0.00 0.00 0.00 78 1021.9
20260502223027 45 311 0.0 1.7 0.00 0.00 0.00 77 1021.9
20260502221514 45 303 0.0 1.7 0.00 0.00 0.00 77 1021.9
20260502220031 44 309 0.0 1.7 0.00 0.00 0.00 78 1021.9